Location: Apalco
(33.3585°N, 93.4602°W)
Time: 11:25:51
(UTC+00:00)

Tiangong - Visible Passes

Search period start: 17 September 2021 00:00
Search period end: 27 September 2021 00:00
Orbit: 380 x 384 km, 41.5° (Epoch: 17 September)

Date Brightness Start Highest point End Pass type
(mag) Time Alt. Az. Time Alt. Az. Time Alt. Az.
23 Sep 2.3 11:25:13 10° SW 11:28:09 37° SE 11:31:06 10° ENE visible
24 Sep 3.3 10:27:09 18° SSE 10:27:42 19° SE 10:30:00 10° E visible
25 Sep 1.1 11:02:00 25° SW 11:03:39 76° SSE 11:06:48 10° ENE visible
26 Sep 3.5 10:04:34 22° E 10:04:34 22° E 10:06:02 10° ENE visible
26 Sep 2.1 11:36:57 10° W 11:39:53 34° NNW 11:42:48 10° NE visible
